Flag for France Weather past 2 weeks in Toulon, France

Now
68 °F

Light rain. Overcast.


Feels Like: 68 °F
Forecast: 61 / 79 °F
Wind: 3 mph from North

Location: Hyeres Airport

Current Time: Sep 1, 2015 at 6:43:31 AM

Latest Report: Sep 1, 2015 at 6:00 AM


Visibility: N/A

Pressure: 29.92 "Hg

Humidity: 78%

Dew point: 61 °F

Location of ToulonLocation

Historic Weather in Toulon — Graph

°F

Toulon temperature yesterday

Maximum temperature yesterday: 82 °F (at 10:00 AM)
Minimum temperature yesterday: 61 °F (at 3:30 AM)
Average temperature yesterday: 73 °F

Past Weeks' High & Low Weather Summary

 TemperatureHumidityPressure
High86 °F (Aug 29, 1:00 PM)94% (Aug 23, 6:30 AM)30.18 "Hg (Aug 23, 6:30 AM)
Low57 °F (Aug 27, 6:00 AM)26% (Aug 25, 12:30 PM)29.77 "Hg (Aug 17, 11:00 AM)
Average72 °F66%29.99 "Hg
* Reported Aug 17 5:00 AM — Sep 1 5:30 AM, Toulon, Weather by CustomWeather, © 2015

Note: Actual official high and low records may vary slightly from our data, if they occured in-between our weather recording intervals... More about our weather records

Advertising

Toulon weather history for previous 24 hours

 ConditionsComfort  
Time TempWeatherWind HumidityBarometerVisibility
5:30 AM
Tue, Sep 1
68 °FMild.2 mph73%29.92 "HgN/A
5:00 AM68 °FClear.No wind69%29.95 "Hg10 mi
4:30 AM70 °FPassing clouds.6 mph64%29.95 "HgN/A
4:00 AM72 °FPassing clouds.7 mph69%29.98 "HgN/A
3:30 AM70 °FClear.No wind69%29.98 "Hg10 mi
3:00 AM72 °FMostly cloudy.7 mph69%30.01 "HgN/A
2:30 AM66 °FPassing clouds.3 mph83%29.98 "HgN/A
2:00 AM64 °FClear.1 mph83%29.98 "Hg10 mi
1:30 AM66 °FPassing clouds.3 mph78%29.98 "HgN/A
1:00 AM68 °FClear.No wind78%29.98 "Hg10 mi
11:30 PM
Mon, Aug 31
68 °FClear.3 mph78%29.98 "Hg10 mi
11:00 PM68 °FClear.3 mph83%29.98 "Hg10 mi
10:30 PM70 °FClear.2 mph83%29.98 "Hg10 mi
10:00 PM72 °FPassing clouds.5 mph83%29.95 "HgN/A
9:30 PM73 °FClear.No wind78%29.98 "Hg10 mi
9:00 PM75 °FSunny.No wind78%29.95 "Hg10 mi
8:30 PM75 °FMild.No wind83%29.95 "HgN/A
8:00 PM77 °FSunny.3 mph74%29.95 "Hg10 mi
7:30 PM79 °FSunny.6 mph65%29.98 "Hg10 mi
7:00 PM81 °FSunny.6 mph54%29.98 "Hg10 mi
6:30 PM81 °FPassing clouds.6 mph66%29.98 "HgN/A
6:00 PM81 °FSunny.7 mph66%29.98 "Hg10 mi
5:30 PM81 °FPassing clouds.5 mph66%30.01 "HgN/A
5:00 PM81 °FPassing clouds.5 mph66%30.01 "HgN/A
4:30 PM82 °FPassing clouds.6 mph62%30.01 "HgN/A
4:00 PM81 °FPassing clouds.6 mph70%30.04 "HgN/A
3:30 PM82 °FPassing clouds.8 mph66%30.04 "HgN/A
3:00 PM81 °FPassing clouds.7 mph70%30.04 "HgN/A
2:30 PM81 °FSunny.8 mph70%30.04 "Hg10 mi
2:00 PM81 °FPassing clouds.9 mph70%30.07 "HgN/A
1:30 PM81 °FPassing clouds.9 mph66%30.07 "HgN/A
1:00 PM81 °FPassing clouds.9 mph66%30.07 "HgN/A
12:30 PM82 °FPassing clouds.12 mph62%30.07 "HgN/A
12:00 PM81 °FPassing clouds.13 mph58%30.07 "HgN/A
11:30 AM82 °FPassing clouds.12 mph62%30.07 "HgN/A
11:00 AM81 °FPassing clouds.8 mph58%30.04 "HgN/A
10:30 AM82 °FPassing clouds.3 mph45%30.04 "HgN/A
10:00 AM82 °FSunny.3 mph45%30.04 "Hg10 mi
9:30 AM81 °FSunny.3 mph39%30.04 "Hg10 mi
9:00 AM75 °FSunny.3 mph57%30.04 "Hg10 mi
8:30 AM72 °FPassing clouds.3 mph61%30.04 "HgN/A
8:00 AM68 °FSunny.3 mph78%30.04 "Hg10 mi
7:30 AM63 °FPassing clouds.3 mph83%30.04 "HgN/A
7:00 AM61 °FPassing clouds.6 mph83%30.04 "HgN/A
6:30 AM63 °FClear.6 mph77%30.04 "Hg10 mi
6:00 AM61 °FPassing clouds.5 mph83%30.04 "HgN/A
Weather by CustomWeather, © 2015

See weather overviewHow to use our weather pages